sat.trackr.live / text

‹ back to catalog

STARLINK-36673

NORAD 67660 · 2026-022N

PAYLOAD ACTIVE UNKNOWN

§ Identity

Operator
Country
US
Launch date
2026-02-02
Launch site
AFWTR
Launch vehicle
Mass (kg)
RCS (m²)

Purposes: comms

External: N2YO · Heavens-Above · Gunter

§ Orbital elements

Epoch: 2026-05-25T02:21:20.248128Z

Period
93.91 min
Inclination
97.2847°
Eccentricity
0.0000965
Mean motion
15.33448809 rev/d
Perigee alt
464.9 km
Apogee alt
466.2 km
Semi-major
6,843.7 km
B*
6.5512e-4
RAAN
178.3713°
Arg perigee
204.3531°
Mean anomaly
155.7666°
Rev number
1,728

§ Raw data

STARLINK-366731 67660U 26022N   26145.09815102  .00021136  00000+0  65512-3 0  99952 67660  97.2847 178.3713 0000965 204.3531 155.7666 15.33448809 17281

JSON: /api/v1/satellites/67660 · /tle

For live sub-satellite position, see the globe view (requires WebGL).

§ Visibility from observer

Set your observer location to see the next 7 days of passes ≥ 10°. The values pass through the URL so the page stays shareable.

No JS? Fill the form by hand. The geolocation button needs JavaScript.